www.pogodaiklimat.ru

Погода и климат >> Архив погоды >> Испания >> Виго


ПОГОДА в Виго

  • Прогноз погоды в Виго
  • Монитор погоды в Виго

АРХИВ ПОГОДЫ в Виго

Время (UTC), дата Ветер
(напр.,м/с)
 
Видим.   Явления Облачность Т
(С)
Тd
(С)
f
(%)
Тe
(С)
Тes
(С)
Комфортность P
(гПа)
Po
(гПа)
Тmin
(С)
Tmax
(С)
R
(мм)
R24
(мм)
S
(см)
10 9.07 СВ 2 н/о н/о +24.3 +16.1 60 +28 +28 душно 1016.6 987.2
11 9.07 СВ 3 н/о н/о +26.4 +17.2 57 +30 +30 душно 1016.5 987.3
12 9.07 ЮЗ 4 40 км 4/4 200 м
[Sc diur, vesp Ci fib]
+26.1 +16.2 54 +29 +37 жарко 1016.5 987.2
13 9.07 З 2 н/о н/о +27.5 +17.3 54 +32 +32 очень
душно
1016.1 987.0
14 9.07 З 3 н/о н/о +27.8 +17.3 53 +32 +32 душно 1015.8 986.7
15 9.07 З 6 40 км 3/3 1000 м
[Sc]
+27.0 +17.6 56 +31 +36 душно 1015.5 986.4
16 9.07 З 5 н/о н/о +26.6 +17.0 56 +31 +31 душно 1015.2 986.0
17 9.07 З 3 н/о н/о +27.2 +17.2 54 +31 +31 душно 1014.8 985.7
18 9.07 З 4 40 км 1/1 1000 м
[Cu hum]
+26.0 +17.1 58 +30 +32 душно 1014.9 985.7 +28.4
19 9.07 С 4 н/о н/о +25.8 +17.4 60 +30 +30 душно 1014.9 985.7
20 9.07 СВ 3 н/о н/о +22.9 +17.4 71 +28 +28 душно 1015.5 986.0
21 9.07 С 4 30 км ясно +21.4 +17.2 77 +25 +25 комфорт 1016.3 986.6
22 9.07 С 2 н/о н/о +20.1 +16.7 81 +23 +23 комфорт 1016.8 986.9
23 9.07 СВ 1 н/о н/о +19.3 +16.3 83 +22 +22 комфорт 1016.7 986.8
00 10.07 С 1 30 км ясно +18.3 +16.1 87 +20 +20 1016.6 986.6
01 10.07 С 1 н/о н/о +18.5 +15.6 83 +20 +20 1016.3 986.3
02 10.07 С 2 н/о н/о +18.0 +15.3 84 +19 +19 1016.0 985.9
03 10.07 штиль 0 20 км ясно +18.0 +15.3 84 +18 +18 1015.8 985.7
04 10.07 Ю 1 н/о н/о +18.3 +15.5 84 +20 +20 1015.6 985.6
05 10.07 ЮЗ 1 н/о н/о +18.0 +15.3 84 +19 +19 1015.8 985.7
06 10.07 Ю 2 45 км ясно +18.3 +15.4 83 +19 +20 1015.8 985.8 +17.2
07 10.07 Ю 3 н/о н/о +19.4 +15.5 78 +21 +21 комфорт 1015.9 986.0
08 10.07 Ю 5 н/о н/о +21.1 +15.9 72 +24 +24 комфорт 1016.2 986.4
09 10.07 Ю 3 30 км ясно +24.0 +16.6 63 +27 +35 жарко 1015.9 986.5
10 10.07 Ю 3 н/о н/о +27.2 +15.7 49 +30 +30 душно 1015.6 986.5
11 10.07 ЮЗ 3 н/о н/о +29.3 +17.1 48 +33 +33 душно 1015.3 986.4
12 10.07 З 5 30 км ясно +28.1 +16.1 48 +31 +41 душно 1015.7 986.6
13 10.07 З 4 н/о н/о +29.0 +15.6 44 +32 +32 душно 1015.1 986.1
14 10.07 З 5 н/о н/о +28.8 +15.5 44 +32 +32 душно 1015.0 986.0
15 10.07 З 4 30 км ясно +29.4 +14.7 41 +32 +42 душно 1014.6 985.7
16 10.07 З 4 н/о н/о +29.8 +14.6 40 +32 +32 душно 1014.2 985.3
17 10.07 З 4 н/о н/о +29.1 +14.9 42 +32 +32 душно 1014.1 985.2
18 10.07 З 5 30 км ясно +28.2 +14.7 44 +31 +32 душно 1014.0 985.0 +30.2
19 10.07 З 3 н/о н/о +26.4 +14.3 47 +29 +29 жарко 1014.3 985.1
20 10.07 СЗ 1 н/о н/о +24.3 +15.8 59 +27 +27 жарко 1014.5 985.1
21 10.07 С 2 20 км ясно +22.5 +11.2 49 +25 +25 комфорт 1015.2 985.6
22 10.07 С 2 н/о н/о +21.9 +12.0 53 +24 +24 комфорт 1015.4 985.7
23 10.07 С 3 н/о н/о +22.3 +10.8 48 +24 +24 комфорт 1015.2 985.5
00 11.07 С 3 20 км ясно +22.8 +12.1 51 +25 +25 комфорт 1015.3 985.7
01 11.07 С 1 н/о н/о +21.5 +14.4 64 +24 +24 комфорт 1015.0 985.3
02 11.07 штиль 0 н/о н/о +20.8 +15.1 70 +24 +24 комфорт 1014.7 985.0
03 11.07 ЮЗ 1 20 км ясно +19.9 +15.3 75 +23 +23 комфорт 1014.3 984.5
04 11.07 С 2 н/о н/о +20.1 +14.6 71 +23 +23 комфорт 1014.3 984.5
05 11.07 штиль 0 н/о н/о +19.5 +14.7 74 +21 +21 комфорт 1014.5 984.6
06 11.07 ЮЗ 2 н/о н/о +20.7 +13.9 65 +24 +24 комфорт 1014.5 984.7 +18.9
07 11.07 Ю 2 н/о н/о +22.3 +14.7 62 +26 +26 жарко 1014.4 984.8
08 11.07 В 2 н/о н/о +25.4 +16.7 59 +29 +29 душно 1014.6 985.3
09 11.07 В 2 30 км ясно +28.9 +18.4 53 +34 +44 очень
душно
1014.1 985.2
10 11.07 СВ 2 н/о н/о +28.5 +18.3 54 +33 +33 очень
душно
1014.3 985.4
11 11.07 СВ 1 н/о н/о +30.5 +18.1 48 +35 +35 очень
душно
1014.3 985.5
12 11.07 З 3 30 км ясно +30.7 +17.9 46 +35 +52 опасность
солнечного
удара
1014.1 985.4
13 11.07 З 2 н/о н/о +31.1 +18.1 46 +36 +36 очень
душно
1014.0 985.3
14 11.07 З 5 н/о н/о +30.6 +18.0 47 +35 +35 очень
душно
1013.7 985.0
15 11.07 З 5 30 км ясно +30.1 +17.3 46 +34 +42 очень
душно
1013.7 984.9
16 11.07 З 5 н/о н/о +29.5 +17.3 48 +34 +34 очень
душно
1013.6 984.8
17 11.07 З 4 н/о н/о +29.0 +16.8 48 +33 +33 очень
душно
1013.5 984.6
18 11.07 З 4 30 км ясно +28.3 +16.6 49 +32 +34 душно 1013.5 984.5 +31.3
19 11.07 З 2 н/о н/о +27.3 +16.0 50 +31 +31 душно 1013.8 984.7
20 11.07 С 3 н/о н/о +24.9 +16.9 61 +29 +29 душно 1014.3 985.0
21 11.07 С 4 30 км ясно +22.8 +16.0 65 +27 +27 душно 1015.0 985.5
22 11.07 С 4 н/о н/о +21.6 +15.7 69 +25 +25 комфорт 1015.2 985.5
23 11.07 С 4 н/о н/о +21.0 +15.3 70 +25 +25 комфорт 1015.0 985.3
00 12.07 штиль 0 30 км ясно +20.4 +12.9 62 +22 +22 комфорт 1014.8 985.0
01 12.07 СВ 1 н/о н/о +20.6 +14.9 70 +25 +25 комфорт 1014.4 984.6
02 12.07 СЗ 1 н/о н/о +19.8 +14.4 71 +23 +23 комфорт 1014.2 984.4
03 12.07 С 1 н/о н/о +19.9 +14.5 71 +23 +23 комфорт 1014.0 984.2
04 12.07 С 1 н/о н/о +19.5 +14.3 72 +23 +23 комфорт 1014.1 984.2
05 12.07 ЮЗ 1 н/о н/о +20.1 +14.5 70 +23 +23 комфорт 1014.3 984.5
06 12.07 Ю 1 30 км ясно +21.6 +15.3 67 +25 +26 комфорт 1014.5 984.8 +19.4
07 12.07 В 1 н/о н/о +23.3 +16.2 64 +28 +28 душно 1014.2 984.7
08 12.07 Ю 2 н/о н/о +24.6 +15.7 58 +28 +28 душно 1014.5 985.1
09 12.07 В 2 35 км 1/0
[Ci fib]
+27.7 +17.9 55 +32 +42 очень
душно
1013.8 984.8
10 12.07 Ю 2 н/о н/о +28.8 +18.3 53 +34 +34 очень
душно
1014.0 985.1
11 12.07 ЮВ 2 н/о н/о +31.8 +18.9 46 +37 +37 очень
душно
1013.6 985.0
12 12.07 ЮВ 2 35 км 6/0
[Cs]
+33.4 +19.2 43 +39 +55 опасность
солнечного
удара
1013.6 985.1
13 12.07 Ю 2 н/о н/о +34.0 +18.3 39 +38 +38 очень
душно
1013.4 985.0
14 12.07 ЮВ 2 н/о н/о +34.6 +16.8 35 +38 +38 очень
душно
1013.1 984.7
15 12.07 ЮЗ 3 35 км 9/0
[Cs]
+33.6 +19.2 43 +39 +50 очень
душно
1013.1 984.7
16 12.07 З 6 н/о н/о +30.8 +17.5 45 +35 +35 очень
душно
1013.6 984.9
17 12.07 З 5 н/о н/о +26.6 +15.3 50 +29 +29 жарко 1013.6 984.5
18 12.07 штиль 0 35 км 9/0
[Ac und Cs]
+27.2 +15.9 50 +30 +33 душно 1013.4 984.3 +35.0
19 12.07 С 3 н/о н/о +27.0 +16.2 52 +30 +30 душно 1013.3 984.2
20 12.07 З 4 н/о н/о +27.2 +17.1 54 +31 +31 душно 1013.7 984.6
21 12.07 З 4 35 км 9/0
[As op]
+25.0 +16.2 58 +28 +28 жарко 1014.2 984.9
22 12.07 З 2 н/о н/о +23.8 +15.4 59 +27 +27 жарко 1015.1 985.6
23 12.07 СЗ 2 н/о н/о +22.4 +15.3 64 +26 +26 жарко 1015.0 985.4
00 13.07 С 3 35 км н/о +21.8 +15.9 69 +25 +25 комфорт 1014.7 985.1
01 13.07 З 1 н/о н/о +21.4 +14.3 64 +24 +24 комфорт 1014.4 984.7
02 13.07 С 3 н/о н/о +21.7 +14.5 64 +25 +25 комфорт 1013.3 983.7
03 13.07 З 1 35 км н/о +21.1 +14.7 67 +24 +24 комфорт 1013.0 983.3
04 13.07 З 2 н/о н/о +21.1 +15.0 68 +24 +24 комфорт 1012.8 983.1
05 13.07 СЗ 3 н/о н/о +20.0 +16.2 79 +23 +23 комфорт 1012.8 983.0
06 13.07 ЮЗ 2 35 км 5/1 1000 м
[Sc Ac As Ci fib]
+19.3 +16.4 83 +22 +22 комфорт 1013.3 983.5 +19.3 0.0
07 13.07 СВ 1 н/о в посл. час осадки н/о +20.5 +18.1 86 +25 +25 комфорт 1013.6 983.9
08 13.07 В 1 н/о н/о +20.9 +18.4 86 +26 +26 душно 1013.8 984.1
09 13.07 СВ 1 н/о осадки н/о +21.0 +18.9 88 +27 +27 душно 1014.1 984.4 0.2
10 13.07 СВ 2 н/о н/о +20.9 +18.0 83 +26 +26 душно 1014.3 984.6
11 13.07 З 2 н/о н/о +23.1 +18.4 75 +29 +29 очень
душно
1015.0 985.5
12 13.07 СВ 2 20 км 8/8 600 м
[Cu Sc]
+23.7 +18.5 73 +28 +32 душно 1014.8 985.4
13 13.07 С 3 н/о н/о +23.7 +19.1 75 +28 +28 душно 1014.3 984.9
14 13.07 ЮЗ 4 н/о в посл. час осадки н/о +19.1 +17.8 92 +21 +21 комфорт 1016.1 986.2
15 13.07 СВ 3 8000 м 9/9 600 м
[Cu Sc]
+20.7 +19.1 91 +25 +27 комфорт 1015.0 985.3 0.4
16 13.07 З 3 н/о в посл. час осадки н/о +20.1 +17.7 86 +24 +24 комфорт 1016.2 986.4
17 13.07 В 3 н/о осадки н/о +19.2 +18.7 97 +21 +21 комфорт 1016.2 986.3
18 13.07 Ю 3 н/о осадки н/о +20.1 +19.2 95 +24 +24 комфорт 1014.7 984.9 +25.0 2
19 13.07 ЮЗ 4 н/о в посл. час осадки н/о +20.4 +19.2 93 +24 +24 комфорт 1014.3 984.6
20 13.07 З 4 н/о н/о +19.1 +18.6 97 +21 +21 комфорт 1015.4 985.5
21 13.07 СВ 1 2500 м 8/8 100 м
[Frnb]
+19.0 +18.5 97 +22 +22 комфорт 1016.3 986.4 0.0
22 13.07 С 2 н/о н/о +18.6 +17.6 94 +20 +20 1016.3 986.3
23 13.07 СЗ 1 н/о н/о +18.0 +17.4 96 +19 +19 1016.7 986.6
00 14.07 СВ 1 300 м 8/8 <50 м
[Frnb]
+17.6 +17.4 99 +19 +19 1016.6 986.5
01 14.07 ЮЗ 1 н/о н/о +17.1 +16.9 99 +18 +18 1016.2 986.1
02 14.07 З 1 н/о н/о +17.0 +16.8 99 +18 +18 1015.8 985.7
03 14.07 штиль 0 н/о н/о +17.1 +16.9 99 +17 +17 1015.5 985.4
04 14.07 Ю 1 н/о н/о +17.0 +16.8 99 +18 +18 1015.2 985.1
05 14.07 Ю 1 н/о осадки н/о +16.7 +16.5 99 +18 +18 1015.7 985.5
06 14.07 Ю 2 300 м 10/10 <50 м
[Frnb]
+16.8 +16.6 99 +17 +17 1015.4 985.2 +16.6 0.0
07 14.07 Ю 2 н/о в посл. час осадки н/о +16.9 +16.7 99 +17 +17 1015.6 985.5
08 14.07 Ю 3 н/о н/о +18.9 +17.7 93 +21 +21 комфорт 1015.8 985.9
09 14.07 Ю 3 20 км {туман} 4/4 200 м
[Cu med, cong]
+21.2 +17.7 80 +25 +30 комфорт 1015.8 986.1 0.0
10 14.07 Ю 2 н/о н/о +23.2 +17.5 70 +29 +29 душно 1015.7 986.2
11 14.07 ЮВ 2 н/о н/о +25.3 +18.2 65 +30 +30 душно 1015.6 986.3
12 14.07 ЮЗ 3 30 км {туман} 3/3 600 м
[Cu hum]
+24.6 +18.9 71 +30 +42 очень
душно
1015.6 986.3
13 14.07 ЮЗ 5 н/о н/о +24.8 +18.5 68 +29 +29 душно 1015.6 986.3
14 14.07 З 4 н/о н/о +25.0 +18.2 66 +29 +29 душно 1015.3 986.0
15 14.07 З 5 30 км 1/1 600 м
[Cu hum]
+24.8 +18.5 68 +29 +36 душно 1015.1 985.8
16 14.07 З 5 н/о н/о +24.2 +18.2 69 +29 +29 душно 1015.2 985.8
17 14.07 З 5 н/о н/о +24.1 +18.1 69 +28 +28 душно 1015.1 985.7
18 14.07 З 5 30 км ясно +22.9 +17.8 73 +28 +30 душно 1015.1 985.6 +25.7
19 14.07 З 4 н/о н/о +22.0 +17.4 75 +26 +26 душно 1015.2 985.6
20 14.07 З 2 н/о н/о +20.3 +17.1 82 +24 +24 комфорт 1015.4 985.6
21 14.07 СЗ 1 30 км ясно +19.1 +16.9 87 +22 +22 комфорт 1015.7 985.8
22 14.07 С 2 н/о н/о +18.8 +16.9 89 +21 +21 комфорт 1015.8 985.8
23 14.07 СЗ 1 н/о н/о +18.2 +16.7 91 +20 +20 1015.8 985.8
00 15.07 СЗ 2 20 км ясно +18.0 +16.5 91 +19 +19 1015.9 985.9
01 15.07 С 2 н/о н/о +17.5 +17.0 97 +18 +18 1015.8 985.7
02 15.07 С 1 н/о н/о +17.2 +16.2 94 +18 +18 1015.2 985.1
03 15.07 штиль 0 6000 м дымка {туман} 3/3 100 м
[St]
+16.6 +15.8 95 +16 +16 1015.2 985.0
04 15.07 СЗ 2 н/о н/о +16.3 +16.1 99 +17 +17 1015.3 985.1
05 15.07 З 2 н/о н/о +16.1 +15.9 99 +16 +16 1015.5 985.3
06 15.07 З 3 200 м туман ?/? +16.3 +16.1 99 +16 +16 1016.1 985.9 +16.1 0.0
07 15.07 СВ 2 н/о осадки н/о +16.6 +16.4 99 +17 +17 1016.2 986.0
08 15.07 С 2 н/о в посл. час осадки н/о +17.0 +16.8 99 +17 +17 1016.4 986.2
09 15.07 СВ 1 н/о н/о +17.6 +17.4 99 +19 +19 1016.5 986.4 0.0
10 15.07 СВ 2 н/о н/о +17.7 +17.5 99 +18 +18 1016.6 986.5
11 15.07 СВ 2 н/о н/о +19.7 +17.7 88 +23 +23 комфорт 1016.6 986.7
12 15.07 ЮЗ 5 4000 м дымка {туман} 10/9 100 м
[St]
+21.0 +17.4 80 +25 +26 комфорт 1016.6 986.8
13 15.07 З 4 н/о н/о +22.9 +17.6 72 +28 +28 душно 1016.3 986.7
14 15.07 З 4 н/о н/о +24.4 +17.3 65 +28 +28 душно 1015.8 986.4
15 15.07 З 6 20 км 3/0
[Cs]
+24.7 +17.4 64 +29 +35 душно 1015.4 986.0
16 15.07 З 5 н/о н/о +24.9 +17.4 63 +29 +29 душно 1015.1 985.8
17 15.07 З 5 н/о н/о +24.8 +17.5 64 +29 +29 душно 1014.7 985.4
18 15.07 З 4 20 км ясно +24.2 +18.4 70 +29 +31 душно 1014.7 985.3 +25.2
19 15.07 С 4 н/о н/о +22.6 +17.8 74 +28 +28 душно 1014.8 985.3
20 15.07 С 5 н/о н/о +20.5 +17.3 82 +24 +24 комфорт 1015.3 985.5
21 15.07 С 5 15 км ясно +19.2 +17.0 87 +21 +21 комфорт 1015.7 985.8
22 15.07 С 5 н/о н/о +18.7 +16.7 88 +20 +20 1016.1 986.1
23 15.07 С 5 н/о н/о +18.4 +16.0 86 +19 +19 1016.1 986.1
00 16.07 С 5 12 км ясно +18.1 +15.4 84 +18 +18 1016.1 986.0
01 16.07 С 3 н/о н/о +17.1 +15.1 88 +17 +17 1016.1 985.9
02 16.07 С 3 н/о н/о +16.7 +14.9 89 +16 +16 1015.7 985.5
03 16.07 С 4 н/о н/о +16.4 +14.8 90 +16 +16 1015.4 985.2
04 16.07 С 4 н/о н/о +16.3 +14.1 87 +16 +16 1015.3 985.1
05 16.07 С 4 н/о н/о +16.0 +13.7 86 +15 +15 1015.4 985.1
06 16.07 С 3 н/о н/о +16.7 +14.1 85 +17 +17 1015.3 985.1 +15.9
07 16.07 СВ 3 н/о н/о +18.9 +14.4 75 +20 +20 1015.5 985.5
08 16.07 СВ 3 н/о н/о +20.6 +14.0 66 +23 +23 комфорт 1015.3 985.5
09 16.07 СВ 3 30 км 1/0
[Cc]
+23.1 +14.6 59 +27 +35 душно 1015.0 985.5

 

Местоположение метеостанции Виго (Испания): широта 42.23 долгота -8.63 высота над уровнем моря 255 м.

В архиве по умолчанию представлена погода в Виго за последнюю неделю. Архивные данные за месяц целиком и за предыдущие месяцы, начиная с января 2011 года, Вы можете получить, выбрав интересующий диапазон дат из раскрывающегося списка и нажав кнопку "Ввод!".


*Определитесь, кто Вы:
робот инопланетянин человек

Внимание! Время в таблицах - всемирное. Для получения местного времени необходимо прибавить поправку, которая равна 1 ч.

Смотрите также архив погоды в соседних городах и на ближайших метеорологических станциях:

Погода в Понтеведре (Испания) (22 км)
Погода в Карбальино (Испания) (49 км)
Погода в Падроне (Испания) (57 км)
Погода в Оренсе (Испания) (64 км)
Погода в Виана-ду-Каштелу (Португалия) (68 км)
Погода в Сантьяго-де-Компостеле (Испания) (73 км)
Погода в Хинсо-де-Лимии (Испания) (76 км)
Погода в Сантьяго (Испания) (76 км)
Погода в Фистерре (Испания) (94 км)
Погода в Порту (Португалия) (111 км)

Пояснения к столбцам:

Ветер - указаны скорость ветра в м/с - средняя за 10 мин, порывы в срок и между сроками (в фигурных скобках) и направление, откуда дует ветер: С - северный, СВ - северо-восточный, В - восточный, ЮВ - юго-восточный, Ю - южный, ЮЗ - юго-западный, З - западный, СЗ - северо-западный.
Видимость - горизонтальная дальность видимости в метрах или километрах. При видимости от 1 до 10 км при отсутствии осадков обычно наблюдается дымка, при ухудшении видимости до 1 км и менее - туман. В сухую погоду видимость может ухудшаться дымом, пылью или мглою.
Явления - указаны атмосферные явления, наблюдавшиеся в срок или в последний час перед сроком; фигурными скобками обозначены явления, наблюдавшиеся между сроками (за 1-3 часа до срока); квадратными скобками обозначены град или гололедные отложения с указанием их диаметра в мм.
Облачность - указаны через наклонную черту общая и нижняя облачность в баллах и высота нижней границы облаков в метрах; квадратными скобками обозначены формы облаков: Ci - перистые, Cs - перисто-слоистые, Cc - перисто-кучевые, Ac - высококучевые, As - высокослоистые, Sc - слоисто-кучевые, Ns - слоисто-дождевые, Cu - кучевые, Cb - кучево-дождевые. Подробнее классификацию облаков см. в Атласе облаков (PDF).
T - Температура воздуха - температура, измеренная на высоте 2 м над землей.
Td - Температура точки росы - температура, при понижении до которой содержащийся в воздухе водяной пар достигнет насыщения.
f - Относительная влажность воздуха - влажноcть воздуха, измеренная на высоте 2 м над землей.
Te - Эффективная температура - температура, которую ощущает одетый по сезону человек в тени. Характеристика душности погоды. При расчете учитывается влияние влажности воздуха и скорости ветра на теплоощущения человека.
Tes - Эффективная температура на солнце - температура, которую ощущает человек, с поправкой на солнечный нагрев. Характеристика знойности погоды. Зависит от высоты солнца над горизонтом, облачности и скорости ветра. Ночью, в пасмурную погоду, а также при ветре 12 м/с и более поправка равна нулю.
P - Атмосферное давление - приведенное к уровню моря атмосферное давление.
Po - Атмосферное давление - измеренное на уровне метеостанции атмосферное давление.
Tmin - Минимальная температура - минимум температуры воздуха на высоте 2 м над землей.
Tmax - Максимальная температура - максимум температуры воздуха на высоте 2 м над землей.
R - Количество осадков - Количество выпавших осадков за период времени, мм. При наведении курсора мыши на число - период времени, за который выпало указанное количество осадков.
R24 - Количество осадков - Количество выпавших осадков за 24 часа, мм.
S - Снежный покров - Высота снежного покрова, см. При наведении курсора мыши на число - состояние снежного покрова и степень покрытия местности в баллах.